Location: Cambridge (historical)
(38.6883°N, 119.0140°W)
Time: 17:28:43
(UTC+00:00)

ERS-2 - Pass Details

Date: 29 October 2020
Orbit: 493 x 498 km, 98.6° (Epoch: 23 November)

Event Time Altitude Azimuth Distance (km) Brightness Sun altitude
Rises 13:38:26 0° 210° (SSW) 2,565 5.5 -8.8°
Reaches altitude 10° 13:41:38 10° 242° (WSW) 1,688 4.4 -8.2°
Maximum altitude 13:43:09 12° 266° (W) 1,556 4.0 -7.9°
Drops below altitude 10° 13:44:40 10° 291° (WNW) 1,693 4.2 -7.6°
Enters shadow 13:45:14 - 299° (WNW) 1,804 4.3 -7.5°
